User: anonymous   Login
Location: Fort Wayne
(41.1310°N, 85.1290°W)
Time: 04:46:04
(UTC-05:00)
Language:

BREEZE-M DEB (TANK) - Orbit

View from above orbital plane
View from above orbital plane
View from above satellite
View from above satellite

Ground track
Ground track

The orbit data is extracted from the following two-line orbital elements,

1 27821U 03024B   17350.45594465 +.00004235 +00000-0 +49151-3 0  9994
2 27821 049.5693 110.0832 4925678 169.2438 207.3662 05.77310170290960
Epoch (UTC): 16 December 2017 10:56:33
Eccentricity: 0.4925678
inclination: 49.5693°
perigee height: 282 km
apogee height: 13213 km
right ascension of ascending node: 110.0832°
argument of perigee: 169.2438°
revolutions per day: 5.77310170
mean anomaly at epoch: 207.3662°
orbit number at epoch: 29096

The dashed part of the orbit path shows where the satellite is in the earth's shadow,  

DLR